SCP
0 0 1 1 1 1 2 2 2 1 1 1 1 1 1 1 1 1 1 1 1 1 1 1 1 2 2 2 2 2 2 2 2 2 1 1 1 1 1 1 1 1 1
0 0 1 1 1 1 2 2 2 1 1 1 1 1 1 1 1 1 1 1 1 1 1 1 1 1 1 2 2 2 2 2 2 2 2 1 1 1 1 1 1 1 1
1 1 1 1 1 1 2 2 2 1 1 1 1 1 1 1 1 1 1 1 1 1 1 1 1 1 1 2 2 2 3 3 3 2 2 2 1 1 1 1 1 1 1
1 1 1 1 1 1 1 1 1 1 1 1 1 1 1 1 1 0 0 1 1 1 1 1 1 1 1 2 2 3 4 4 3 2 2 2 2 1 1 1 1 1 1
1 1 1 0 0 1 1 1 1 1 1 1 1 1 1 1 1 1 0 1 1 1 1 1 1 1 1 2 2 3 3 3 3 2 2 2 2 1 1 1 1 1 1
1 1 1 1 1 1 1 1 1 1 1 1 1 1 1 1 1 1 1 1 1 1 1 1 1 1 1 1 1 2 2 3 3 3 2 2 2 2 1 1 1 1 1
1 1 1 1 1 1 1 1 1 1 1 1 1 1 1 1 1 1 1 1 1 1 1 1 1 1 1 1 1 1 2 2 3 3 3 2 2 2 2 2 1 1 0
1 1 1 1 1 1 1 1 2 2 2 2 1 1 1 1 1 1 1 0 0 0 1 1 1 1 0 1 1 1 1 2 2 2 2 2 2 2 2 2 1 1 1
1 1 1 1 1 1 1 2 2 2 3 2 2 1 1 1 1 1 1 0 0 0 0 0 0 0 1 1 1 1 1 1 1 1 1 2 2 2 2 2 1 1 1
1 1 1 1 1 1 2 2 2 3 3 2 1 1 1 1 2 1 1 0 0 0 0 0 0 1 1 1 2 1 1 1 1 1 1 1 1 1 1 1 1 1 1
1 1 1 1 1 1 1 2 2 2 2 2 1 1 1 2 2 1 1 1 1 1 1 0 0 1 1 1 1 1 1 0 0 0 1 1 1 1 1 1 1 1 1
1 1 1 1 1 1 1 1 2 2 2 1 1 1 1 2 2 2 1 1 1 1 1 1 1 1 1 1 1 1 0 0 0 0 0 1 1 1 1 1 1 1 1
1 1 1 1 1 1 1 1 2 2 2 1 1 1 1 1 2 2 2 2 1 1 1 1 1 1 1 1 1 0 0 0 0 0 0 0 1 1 1 1 1 1 1
1 1 1 1 1 1 2 2 2 2 2 2 1 1 1 2 2 3 3 2 2 2 1 1 1 1 1 1 1 0 0 0 0 0 0 0 0 0 0 0 1 1 1
1 1 1 1 1 1 1 1 2 2 3 3 2 2 3 3 3 3 3 3 2 2 1 1 1 1 1 1 1 0 0 0 0 0 0 0 0 0 0 0 0 0 0
2 2 1 1 1 1 1 1 1 2 3 3 3 3 3 3 3 3 3 3 2 2 1 1 1 1 1 1 0 0 0 0 0 0 0 0 0 0 0 0 0 0 0
2 2 2 1 1 1 1 1 1 2 3 3 2 2 2 2 3 3 3 3 2 2 1 1 1 1 1 1 0 0 0 0 0 0 0 0 0 0 0 0 0 0 0
3 3 2 2 1 1 1 1 1 2 2 1 1 1 1 2 2 2 3 3 2 2 1 1 2 1 1 1 0 0 0 0 0 0 0 0 0 0 0 0 0 0 0
4 3 3 2 2 1 1 1 1 1 1 1 1 1 1 1 1 1 1 2 2 1 2 2 2 1 1 0 0 0 0 0 0 0 0 0 0 0 0 0 0 0 0
4 4 3 3 2 2 1 1 1 1 1 1 1 1 1 1 1 1 1 1 1 1 2 2 2 1 1 0 0 0 0 0 0 0 0 0 0 0 0 0 0 0 0
4 4 4 3 3 2 2 1 1 1 1 1 1 1 1 1 1 0 0 1 1 1 2 2 2 1 1 1 0 0 0 0 0 0 0 0 0 0 0 0 0 0 0
3 3 3 3 3 2 2 1 1 1 1 1 1 1 1 1 1 0 0 0 1 2 2 2 2 1 1 1 1 0 0 0 0 0 0 0 0 0 0 0 0 0 0
3 3 3 3 3 2 1 1 1 1 1 1 1 2 1 1 1 0 0 0 1 1 1 2 2 1 1 1 1 0 0 0 0 0 0 0 0 0 0 0 0 0 0
3 2 2 3 3 2 1 0 1 1 1 1 1 2 2 1 1 0 0 1 1 1 1 1 1 1 1 1 1 0 0 0 0 0 0 0 0 0 0 0 0 0 0
2 2 2 2 3 2 1 0 0 1 1 1 2 2 2 1 1 1 1 1 0 0 0 0 0 0 0 0 0 0 0 0 0 0 0 0 0 0 0 0 0 0 0
2 2 2 2 3 2 1 0 0 1 1 1 2 2 2 1 1 1 1 1 0 0 0 0 0 0 0 0 0 0 0 0 0 0 0 0 0 0 0 0 1 0 0
Wind_Speed
1 2 1 2 2 2 2 2 2 3 3 2 2 2 1 1 1 1 1 1 1 2 3 3 3 5 6 7 8 9 9 9 10 9 9 9 9 9 8 8 8 7 7
2 2 2 2 2 2 2 2 2 2 2 2 2 2 1 1 1 1 1 1 2 2 3 2 2 3 5 5 7 8 8 9 9 9 9 9 8 9 9 8 8 8 7
2 2 2 2 1 2 2 2 2 2 2 2 2 2 2 2 1 1 2 1 2 3 3 3 2 2 3 4 6 6 7 7 8 8 8 8 8 8 8 8 8 8 8
2 2 2 2 1 2 2 2 2 2 2 2 2 2 2 2 2 2 2 2 2 2 3 3 2 1 1 2 4 5 6 7 7 8 8 8 7 7 8 8 8 8 8
3 3 2 1 2 2 1 1 2 2 2 2 1 2 2 2 2 3 2 2 2 2 2 3 3 2 1 1 2 3 4 5 6 7 7 7 7 6 7 7 7 7 8
2 3 2 2 2 2 2 1 2 2 1 1 2 3 2 2 2 3 3 3 2 3 2 3 2 2 3 1 2 3 4 4 5 6 7 6 6 6 7 7 7 6 7
2 3 2 2 2 2 2 2 2 2 1 1 2 2 3 3 3 2 2 3 3 3 3 3 2 2 2 3 2 1 2 3 3 4 5 5 5 6 6 6 6 6 6
2 3 3 2 2 2 2 2 2 1 1 1 1 1 2 3 3 3 2 3 3 3 3 3 2 2 2 2 2 2 1 1 2 2 4 5 6 6 6 6 7 6 6
2 2 3 2 2 2 2 1 1 2 1 1 1 2 1 1 2 3 3 2 3 3 3 3 3 2 2 1 2 2 1 1 1 2 2 3 5 6 6 6 7 7 7
2 2 3 3 2 2 2 1 1 1 2 1 0 1 1 2 1 2 3 2 3 3 3 3 3 3 2 1 1 2 3 3 2 2 2 2 2 3 4 6 6 7 7
1 2 2 2 2 2 2 1 2 2 1 2 1 1 1 1 1 1 2 3 3 3 3 3 2 2 2 1 1 2 2 2 2 2 2 2 2 3 3 4 5 6 7
0 1 1 1 2 2 2 2 2 2 1 1 1 1 1 1 1 1 1 2 3 3 3 2 2 2 1 1 2 2 2 2 2 2 2 2 3 3 4 4 4 4 6
1 1 1 1 1 1 1 2 2 1 1 1 1 1 1 1 1 2 1 1 1 2 2 2 2 2 2 1 2 3 3 3 3 2 2 3 3 3 3 4 5 5 4
2 2 2 2 1 1 2 2 1 1 1 1 1 1 1 1 1 2 2 1 1 2 2 3 2 2 2 2 2 3 3 3 3 3 2 2 2 2 2 3 2 3 3
2 2 2 2 2 2 2 2 1 1 1 1 1 1 1 1 1 1 1 2 1 1 2 2 2 2 2 2 3 2 3 3 3 3 3 3 3 2 2 2 1 2 3
2 3 2 2 2 2 2 2 1 1 1 1 1 1 1 1 1 1 1 1 2 2 2 2 2 3 3 3 2 2 3 4 4 4 3 3 3 3 3 2 1 1 2
3 3 3 3 2 2 2 2 2 1 1 1 1 1 2 2 1 1 1 1 1 2 3 3 2 3 3 3 3 2 2 2 2 3 4 4 3 3 3 3 2 2 1
4 4 4 3 3 3 2 3 3 2 2 2 2 2 2 1 2 1 1 1 2 2 2 3 3 2 2 3 2 3 3 2 2 3 3 3 3 3 3 3 3 3 2
3 3 4 4 4 4 3 3 3 3 3 3 3 3 3 2 2 2 2 2 2 2 2 2 3 2 2 2 2 2 3 2 2 2 2 2 3 3 3 4 4 4 3
4 4 4 4 4 4 4 4 3 3 3 4 3 4 4 4 4 4 3 3 2 2 1 2 2 2 2 2 1 2 2 2 3 3 2 2 2 3 3 3 4 4 4
4 4 3 3 3 3 4 4 3 4 4 4 3 4 4 5 5 4 3 3 2 2 1 2 2 2 2 2 2 2 2 3 3 2 1 2 2 2 2 2 3 3 3
3 3 4 4 4 4 4 5 4 3 3 4 4 4 4 4 5 5 6 5 4 3 3 2 2 3 4 3 2 2 2 2 2 1 1 2 1 2 2 2 2 2 2
3 3 4 4 4 4 4 4 5 3 4 4 4 3 3 3 4 3 4 4 5 5 5 4 4 5 4 4 2 3 3 3 3 2 1 2 2 2 2 2 2 2 2
4 3 3 3 3 3 3 3 3 3 3 4 4 4 4 4 3 3 2 2 3 3 4 4 5 5 5 4 4 3 3 3 3 2 2 2 2 2 2 2 2 2 2
3 3 3 3 3 3 3 3 3 2 3 3 3 3 3 3 4 3 2 3 3 3 3 4 5 4 4 4 3 2 2 2 3 2 1 2 2 2 2 2 2 1 2
3 3 2 3 3 3 2 3 3 2 2 2 2 2 3 3 3 2 3 3 4 4 3 2 2 2 2 2 3 3 3 3 2 2 2 2 2 1 2 1 1 1 1
Wind_Direction
104 94 80 71 61 62 68 67 59 52 47 46 53 69 58 36 11 351 323 332 312 300 293 270 240 232 227 220 210 202 200 198 195 193 193 196 198 198 196 195 195 194 193
103 100 93 80 65 65 70 76 72 63 49 37 33 43 57 44 9 350 336 327 322 314 308 298 268 246 228 216 206 201 202 202 200 198 198 200 201 196 193 197 198 197 196
105 106 100 89 83 79 75 74 68 62 55 43 28 19 28 27 17 358 344 338 335 337 331 323 302 277 238 218 203 199 198 199 200 198 198 198 197 194 194 200 203 202 198
111 107 101 96 98 89 78 78 71 65 51 42 26 9 13 13 8 356 352 350 346 337 330 341 346 334 248 212 199 197 201 199 198 196 196 195 195 197 197 202 207 203 202
111 111 105 97 99 94 80 85 73 80 70 45 28 20 17 10 356 355 357 349 345 347 342 357 10 2 333 218 205 211 215 206 198 189 188 191 195 195 198 202 205 204 205
120 116 114 106 105 102 84 83 86 66 74 62 46 33 15 7 9 0 349 353 351 348 353 355 356 2 1 336 232 227 229 217 202 194 189 191 196 197 198 199 201 206 210
128 125 121 112 104 109 116 115 106 83 51 37 53 16 359 12 17 5 359 2 358 352 4 8 6 1 359 7 359 255 231 213 193 187 186 191 198 201 199 196 204 210 209
138 145 137 136 127 117 103 103 105 105 56 41 91 68 3 351 354 359 3 5 355 355 359 356 357 353 351 355 18 10 60 185 196 191 193 191 197 201 201 204 211 211 207
133 136 142 138 134 132 136 136 133 133 138 36 63 121 128 259 317 330 351 0 355 354 349 351 352 350 359 4 353 7 5 324 251 222 202 200 203 206 209 212 218 216 212
132 136 142 142 139 133 138 158 140 134 134 137 38 57 128 161 162 322 329 347 353 352 345 339 341 349 359 1 16 17 14 4 336 284 237 212 217 216 221 222 220 219 215
117 133 142 147 149 151 155 144 128 130 139 148 152 128 88 69 110 159 304 326 338 334 335 330 334 337 338 337 343 8 3 342 337 313 270 243 238 243 242 237 226 223 221
146 123 135 139 158 160 162 156 147 147 158 151 153 144 148 156 172 165 222 295 310 312 324 330 340 329 320 318 323 349 344 328 320 316 312 275 251 249 251 250 246 240 232
189 205 174 163 165 171 160 143 141 151 166 160 177 183 187 198 173 172 182 254 302 309 321 329 321 315 312 308 313 327 329 321 317 318 316 303 277 266 272 272 258 246 231
196 186 180 174 166 154 145 136 135 161 147 170 179 176 196 232 207 191 179 182 304 316 312 300 310 302 315 311 307 316 318 311 303 301 302 303 302 296 294 294 256 230 219
187 172 177 175 177 166 156 143 140 174 155 177 194 198 216 238 229 219 196 192 195 278 296 290 296 308 313 304 303 304 300 312 301 290 286 284 285 284 290 301 251 222 219
176 169 175 179 177 179 168 151 168 189 162 208 205 192 230 240 243 228 211 207 206 215 264 276 275 297 300 303 319 314 310 315 304 294 290 285 280 273 274 285 278 235 209
179 182 184 184 187 195 186 173 194 192 193 228 239 217 240 233 231 232 214 203 215 204 245 277 273 290 283 300 324 327 323 317 315 303 298 295 283 273 273 276 276 263 232
188 190 187 189 194 196 196 196 209 214 217 230 242 237 248 239 243 239 222 230 235 222 226 269 289 297 290 296 310 318 324 329 319 318 311 305 290 276 268 264 263 256 243
188 192 192 199 204 203 203 211 211 219 226 234 239 238 242 234 249 247 236 238 244 242 229 253 281 289 291 303 315 314 320 324 321 323 318 313 314 301 278 265 254 248 240
187 198 204 210 213 209 209 214 215 222 232 238 240 241 242 234 239 242 242 241 240 244 241 250 273 286 290 300 297 296 312 325 320 320 337 359 359 335 303 275 258 249 243
196 200 203 214 218 212 214 214 219 224 231 246 255 252 248 246 244 237 237 230 224 235 243 254 267 281 283 290 284 287 289 308 308 304 322 340 346 337 320 286 258 245 236
199 193 202 211 219 228 228 220 213 221 230 239 254 264 264 253 254 248 243 234 221 222 228 236 249 257 269 266 267 269 279 294 296 311 304 310 317 312 316 309 289 243 217
196 206 214 211 223 237 232 227 219 213 225 237 247 256 264 267 257 252 253 252 247 244 231 225 240 249 255 247 241 258 259 260 265 294 283 289 305 299 302 309 287 239 217
199 209 222 220 221 239 235 229 222 219 229 239 242 241 245 261 260 245 244 254 258 257 247 236 239 251 254 248 231 238 246 259 274 275 245 270 287 287 304 303 296 257 238
200 204 211 215 218 239 231 222 209 217 237 252 255 251 246 250 265 248 226 246 270 282 281 252 248 258 262 248 225 206 219 232 277 287 232 242 274 289 296 294 302 286 261
197 197 208 217 220 234 237 227 212 208 232 254 268 267 258 256 269 243 224 227 250 269 286 299 298 300 281 251 228 223 220 230 254 271 218 214 256 280 294 298 312 314 307